Location: ??
(35.5653°N, 139.6194°E)
Time: 12:56:49
(UTC+00:00)

ATLAS 2AS CENTAUR R/B - Pass Details

Date: 20 November 2019
Orbit: 926 x 1286 km, 63.7° (Epoch: 02 December)

Event Time Altitude Azimuth Distance (km) Brightness Sun altitude
Exits shadow 19:18:22 20° 338° (NNW) 2,465 4.3 -25.0°
Maximum altitude 19:23:49 64° 56° (NE) 1,243 3.1 -23.9°
Drops below altitude 10° 19:30:37 10° 137° (SE) 2,876 5.6 -22.6°
Sets 19:33:10 0° 140° (SE) 3,778 6.3 -22.0°
